GFSNGP_925_rhum_003.txt.gz
RH
47 41 40 41 42 40 41 44 61 50 41 33 29 27 27 27 28 30 33 32 34 42 47 53 37 29 31 32 34 34 39 43 51 46 44 45 45 44 44 43 42 39 37 38
79 54 47 53 43 40 39 38 38 39 40 27 26 27 29 34 35 40 38 36 40 52 59 52 35 30 30 30 35 43 49 54 46 44 45 44 43 44 41 38 36 36 38 40
88 56 76 94 69 50 42 33 34 45 37 28 30 33 37 40 41 42 44 44 51 65 59 49 39 32 31 39 51 75 51 48 45 44 44 44 43 41 37 35 36 39 40 42
99 98 92 36 28 28 33 30 30 30 29 34 38 39 42 43 47 71 67 54 73 64 59 49 46 41 47 74 62 55 53 44 40 40 42 44 42 36 35 37 39 41 44 49
100 78 56 47 31 36 44 45 32 34 39 40 45 48 61 48 66 69 61 78 59 62 59 64 70 79 92 92 60 46 38 38 39 41 45 41 36 36 39 41 43 45 51 63
99 99 90 41 32 32 33 52 41 44 46 58 62 89 78 65 62 72 77 58 56 64 76 92 93 90 72 52 39 38 38 40 42 43 40 37 39 41 41 41 44 57 71 76
96 96 69 40 31 34 69 59 51 49 52 59 65 66 63 71 73 70 58 57 68 85 88 74 74 58 43 42 41 36 42 44 43 40 38 41 41 40 40 46 60 75 83 83
100 100 94 31 35 73 64 52 47 51 54 63 67 69 74 79 77 59 55 60 85 93 68 63 61 53 42 34 34 40 44 44 41 42 45 43 40 40 47 54 61 76 79 80
61 61 40 37 42 40 41 48 58 64 51 68 73 70 71 78 62 56 66 86 88 74 71 64 47 40 34 39 41 45 46 44 45 49 48 41 41 47 51 51 67 77 82 80
73 53 44 43 45 46 48 60 46 51 53 54 62 66 75 66 58 60 90 98 87 75 59 45 40 40 37 46 50 46 46 50 54 53 46 45 49 49 50 62 75 75 80 83
76 58 52 57 55 44 49 47 44 49 52 56 67 65 79 69 56 86 98 95 77 62 50 40 39 41 44 47 54 50 54 58 58 53 52 54 55 54 58 70 86 86 86 94
95 67 68 56 40 38 45 54 51 49 41 37 42 61 65 65 85 98 97 88 70 49 42 38 39 43 48 52 53 62 66 66 70 58 57 58 55 56 62 75 80 82 97 98
74 59 55 42 39 40 51 48 33 33 33 34 47 65 77 95 95 81 73 64 48 42 41 42 45 49 52 66 69 96 91 83 66 62 60 59 60 63 80 80 77 82 98 98
44 46 43 43 49 43 35 30 31 32 34 56 77 89 96 77 71 64 61 47 45 44 45 49 51 51 66 72 94 100 99 79 64 66 67 67 69 76 85 82 86 83 90 97
29 35 44 43 38 30 30 31 38 43 53 71 87 91 90 69 62 52 51 57 61 60 56 57 65 66 73 80 92 88 74 64 78 76 74 72 71 69 71 80 77 88 85 88
43 41 36 35 35 32 32 35 53 67 90 91 94 97 84 73 56 50 61 65 74 62 78 73 87 84 89 81 82 71 55 59 71 70 70 65 65 65 70 80 79 90 88 93
45 44 42 42 37 37 41 50 70 98 94 98 95 91 83 81 76 75 66 71 72 75 79 91 98 80 92 88 79 63 59 63 74 69 68 67 66 64 74 83 83 89 92 98
35 35 34 36 38 46 55 64 88 95 80 82 79 75 80 84 86 83 88 80 83 88 92 94 79 90 85 85 80 79 73 75 72 71 69 71 69 69 81 91 89 89 93 96
37 39 38 37 43 60 72 80 91 88 82 79 79 87 78 79 87 88 86 96 95 96 88 80 80 83 99 93 86 80 82 83 80 70 74 72 72 77 82 81 90 93 95 95
46 46 47 48 58 88 96 98 86 81 76 70 72 85 91 89 85 88 97 95 89 81 85 90 91 100 99 93 90 78 81 86 80 72 75 75 77 79 85 86 86 93 93 95
58 57 67 95 100 89 79 76 61 77 71 69 88 92 90 95 98 99 91 75 98 88 84 87 92 85 85 84 88 94 92 88 80 81 79 79 79 80 83 86 88 91 93 95
61 72 82 92 97 90 73 64 73 70 73 82 86 91 96 94 95 92 93 99 99 99 100 99 100 99 97 92 93 99 94 89 83 84 81 79 78 82 81 80 90 86 92 95
63 67 72 98 95 97 89 75 74 78 91 99 100 100 95 86 88 86 84 90 97 98 99 98 97 98 97 96 98 100 97 92 86 86 83 83 86 85 83 82 88 92 90 93
70 73 74 83 99 98 84 78 84 88 96 100 100 93 94 85 90 85 93 96 93 92 92 95 96 98 96 100 99 99 98 95 93 92 86 81 89 85 84 84 85 89 91 91
94 98 98 100 97 68 68 74 90 97 99 98 94 87 86 89 99 96 100 95 94 93 97 99 99 100 100 100 100 100 98 97 94 93 90 88 84 86 88 86 89 91 89 89
98 97 96 99 81 49 52 69 70 77 82 84 85 96 91 92 100 98 96 96 94 92 92 99 100 100 100 100 100 100 99 99 95 92 91 86 86 86 89 90 88 88 89 92
99 99 99 93 67 66 72 78 86 88 96 100 96 94 89 95 91 94 98 92 91 86 90 90 96 100 100 100 100 100 100 99 98 96 93 91 89 88 91 91 90 91 93 96

GFSNGP_925_rhum_009.txt.gz
RH
66 60 57 53 55 55 61 60 72 60 56 43 40 50 54 53 53 52 60 64 64 63 61 59 61 63 55 41 40 39 37 44 64 67 65 65 64 55 51 49 45 45 46 43
86 69 65 70 65 60 57 58 56 54 49 39 40 60 64 62 60 69 68 66 63 64 62 63 63 61 54 57 62 63 73 79 78 80 81 80 75 68 57 45 47 44 40 43
85 78 82 86 65 59 56 46 51 67 59 67 67 65 68 69 73 73 69 71 68 70 66 64 64 62 66 73 77 76 82 85 88 87 87 81 73 49 45 47 41 42 44 44
97 99 97 58 41 40 50 49 50 68 73 68 74 73 65 60 76 77 70 76 76 67 65 68 70 73 79 89 96 92 94 83 76 72 72 48 44 46 44 42 43 43 44 53
97 97 73 63 53 50 57 57 75 73 69 65 75 73 68 60 70 75 74 78 68 67 68 71 72 80 86 88 91 92 76 71 63 43 42 44 44 42 42 43 43 46 53 52
99 98 89 61 47 56 54 82 77 73 86 85 82 93 79 72 74 72 72 63 66 65 71 71 73 76 76 71 64 79 46 42 42 44 44 42 43 45 46 46 46 50 53 76
98 93 82 58 45 56 87 80 75 73 78 81 89 80 75 71 72 68 65 63 69 72 72 76 72 75 70 54 45 43 41 43 44 45 45 49 51 48 46 49 52 60 69 66
98 99 94 52 49 72 64 65 56 68 75 74 79 82 70 70 73 73 72 76 78 78 78 76 77 72 63 40 41 42 44 45 47 49 52 55 51 51 53 56 63 70 80 84
82 81 60 49 53 52 52 60 69 75 80 80 79 75 56 51 68 76 84 84 82 84 82 80 61 42 44 46 45 48 49 51 53 55 60 59 56 57 59 61 74 78 85 91
78 60 54 55 52 53 56 66 77 79 80 70 74 60 65 74 78 87 86 86 83 84 75 70 55 41 44 45 48 52 54 60 64 71 70 61 62 63 62 69 71 82 88 95
80 66 61 58 60 60 73 84 83 70 71 60 71 77 75 71 75 84 79 80 88 83 74 59 42 42 44 48 52 55 61 72 81 75 67 68 68 68 69 63 75 84 91 99
87 62 71 68 63 63 74 69 63 61 60 67 73 74 72 78 78 75 80 85 91 65 49 44 45 50 55 57 59 65 74 84 88 73 74 72 75 74 66 76 76 74 93 98
72 62 60 69 58 60 61 55 44 60 68 71 68 74 81 86 84 90 84 74 56 55 52 53 54 60 63 66 71 78 82 92 81 84 70 74 80 79 82 82 63 74 96 99
55 58 69 57 51 42 39 38 38 63 68 70 75 88 84 88 89 86 64 59 58 60 59 58 58 57 70 77 78 79 79 81 81 74 69 75 81 77 74 82 84 90 94 97
51 49 49 44 42 39 38 41 50 74 82 82 86 91 93 91 86 74 64 60 46 64 74 61 58 68 80 79 83 83 80 76 84 71 73 78 77 73 75 80 82 95 96 90
46 46 47 49 48 47 46 47 60 77 81 81 88 95 87 71 67 64 72 70 62 62 60 67 70 84 86 72 83 77 82 88 88 80 81 84 82 69 88 83 88 96 96 98
54 52 49 54 53 51 54 57 74 82 84 88 89 76 72 74 68 71 70 75 70 66 68 74 76 94 86 84 88 83 84 88 80 79 91 87 79 91 88 87 86 96 96 96
45 43 40 44 45 52 68 70 74 86 88 85 83 80 75 81 80 79 80 74 71 70 92 95 100 96 87 94 89 92 89 97 78 80 97 84 82 77 84 89 89 94 96 95
43 46 45 46 50 64 73 75 81 93 97 99 92 69 66 90 97 88 81 86 91 93 96 97 99 100 97 91 90 87 88 99 91 89 88 84 91 82 91 92 90 88 95 95
54 52 53 61 63 71 78 78 93 97 99 99 86 74 89 93 90 94 99 92 89 95 95 93 95 98 99 99 96 89 89 94 92 98 85 85 86 94 91 93 95 88 90 95
65 65 68 70 73 72 79 84 100 99 84 94 85 73 82 73 95 91 84 82 80 86 92 91 88 86 94 99 98 96 99 95 98 95 92 94 83 90 90 91 97 96 88 94
67 71 68 65 76 88 89 91 91 88 90 86 76 83 91 95 88 83 86 83 83 89 90 89 86 86 86 96 99 96 90 89 94 93 95 87 85 89 93 78 97 89 95 89
63 64 67 70 79 84 87 90 92 97 97 77 84 93 94 91 87 85 81 81 87 88 90 90 89 90 94 100 98 91 90 90 97 95 96 90 90 80 94 87 98 90 86 98
56 62 69 67 88 92 87 85 94 100 96 81 96 100 96 97 89 89 86 87 87 87 86 85 86 89 100 99 91 96 92 94 96 97 96 85 90 90 92 89 94 90 83 96
60 66 69 89 88 82 86 94 100 98 90 91 95 99 95 93 89 86 82 79 80 84 85 80 80 84 87 95 93 96 96 96 98 97 97 97 95 86 96 94 81 92 90 90
67 66 76 85 84 87 99 100 98 94 92 98 96 100 96 99 92 89 87 92 81 87 84 78 81 86 89 85 86 87 96 96 97 97 93 96 96 85 94 92 89 94 90 76
68 70 83 83 89 97 100 100 99 96 94 94 97 99 96 99 91 89 87 82 86 87 87 89 88 86 96 98 93 92 88 96 93 98 96 94 96 94 94 89 92 90 83 83

GFSNGP_925_rhum_015.txt.gz
RH
72 68 70 71 74 71 81 79 87 73 73 62 70 76 75 71 72 66 62 66 70 72 71 69 72 70 70 66 69 71 78 85 74 71 72 77 91 98 97 94 68 66 56 48
86 78 81 86 77 80 80 79 81 77 71 58 70 75 80 81 71 73 74 76 77 68 67 74 77 71 70 70 70 78 90 89 91 97 98 98 96 78 79 75 82 56 45 43
82 93 93 81 76 76 66 57 62 77 64 75 84 83 74 71 74 79 76 70 60 66 72 77 78 76 75 71 78 78 84 89 88 87 95 94 83 89 86 66 48 45 46 48
91 93 94 56 51 52 63 59 60 68 76 80 82 74 69 74 81 84 68 54 57 58 76 86 78 73 73 76 80 82 89 93 85 86 88 77 57 52 47 48 50 49 50 55
98 98 77 63 54 54 60 67 71 80 77 68 67 76 74 85 74 71 67 57 65 82 79 76 71 74 78 82 59 75 71 53 54 60 58 48 48 51 52 50 52 55 61 68
97 99 96 65 47 56 66 90 77 76 77 76 81 92 84 81 68 65 65 78 79 79 79 81 76 82 83 79 51 55 52 52 51 48 50 54 55 54 56 57 61 65 66 65
98 95 88 65 54 50 81 69 69 70 69 82 93 89 89 75 70 70 73 77 80 85 90 89 83 86 98 63 62 49 49 50 51 54 58 59 60 61 61 65 66 67 63 62
98 100 93 56 57 72 71 62 67 73 80 86 85 83 78 79 77 75 76 82 82 86 88 89 79 76 76 63 53 50 51 51 53 59 66 69 65 66 68 68 67 66 75 69
79 80 61 56 59 61 60 72 75 88 86 86 84 75 78 79 80 72 78 86 84 82 97 96 72 59 56 52 51 57 56 59 66 74 72 69 72 72 72 69 75 83 86 92
77 64 57 61 57 55 64 78 86 84 78 70 73 72 81 79 81 84 85 90 95 89 86 63 67 65 71 60 56 59 63 68 74 76 72 70 65 76 80 80 82 90 94 97
84 72 72 65 68 74 86 88 80 81 84 80 71 77 78 80 83 83 90 94 87 84 72 74 65 64 66 64 66 67 69 70 74 76 81 72 68 77 83 74 85 92 92 98
90 66 71 69 84 86 84 84 79 75 69 62 70 80 71 84 78 84 94 84 82 74 72 65 60 63 67 69 73 76 78 80 84 88 87 73 75 83 76 72 78 76 92 94
74 62 72 85 79 78 73 68 69 69 61 65 68 69 74 86 79 88 89 85 77 71 56 63 66 61 62 75 80 84 89 86 82 89 93 87 85 87 80 74 74 69 86 94
68 71 88 86 96 81 71 65 66 62 56 66 71 74 78 85 84 86 86 79 71 68 62 75 74 66 74 83 73 79 82 84 84 89 93 94 96 95 82 95 90 85 82 92
72 69 70 71 61 52 48 50 62 66 65 72 70 76 80 87 86 80 76 64 71 74 65 68 71 71 80 88 79 84 87 91 93 89 84 90 96 88 92 91 83 94 89 80
65 65 65 54 58 61 59 50 53 60 70 76 80 83 81 84 86 84 67 70 77 81 76 88 91 88 94 99 92 95 94 92 94 94 87 97 87 88 89 95 88 96 94 98
78 94 82 68 71 65 56 54 66 77 82 87 86 88 93 92 91 77 62 72 78 80 98 99 99 94 91 95 98 93 93 94 95 98 93 90 91 94 92 96 92 94 98 96
63 65 62 54 58 66 73 71 72 77 82 78 95 100 100 100 97 96 69 87 85 96 96 99 98 93 84 91 93 90 97 93 95 96 96 95 90 93 97 97 94 93 94 91
54 56 54 58 62 69 71 67 68 68 73 87 99 98 97 100 99 79 94 95 96 96 90 87 88 83 77 89 97 93 100 98 97 95 96 94 94 92 94 93 97 93 94 93
52 50 53 60 59 67 72 65 66 76 82 98 91 99 96 100 98 98 100 96 87 83 81 86 86 83 83 85 89 100 99 98 96 95 98 96 95 90 93 93 99 94 94 96
60 57 60 66 69 64 66 64 70 78 82 80 88 90 98 98 98 96 100 94 81 83 81 84 88 86 84 86 89 90 92 96 95 92 98 96 95 91 92 87 97 93 89 95
64 70 71 69 73 73 64 65 70 77 89 84 84 96 99 98 98 93 97 93 82 81 83 86 92 92 87 90 95 91 92 96 97 97 97 97 96 96 86 87 94 91 93 91
70 71 70 72 76 74 72 74 75 82 98 91 96 100 98 98 97 98 97 82 79 78 79 86 94 85 82 85 89 89 96 98 97 97 97 98 97 92 85 90 92 95 92 95
72 72 75 74 76 83 89 80 78 86 94 100 100 100 98 98 98 97 87 78 77 78 77 87 92 89 86 80 81 88 92 96 96 96 96 98 98 96 94 92 93 95 88 91
71 72 79 83 88 89 84 84 91 99 95 95 99 99 96 95 94 91 89 88 84 86 88 94 95 88 87 95 100 98 87 87 95 98 94 94 96 97 95 93 94 89 87 88
76 82 86 89 91 91 96 95 98 100 100 99 99 97 96 96 91 92 91 89 89 86 94 94 95 95 96 97 94 97 99 98 96 97 98 96 94 93 95 93 92 84 87 90
90 93 86 88 89 91 98 100 100 98 99 99 97 94 98 99 98 97 91 86 89 92 96 96 94 90 90 92 92 93 98 98 98 98 96 97 95 94 95 94 93 88 88 85

GFSNGP_925_rhum_021.txt.gz
RH
66 62 68 70 70 68 73 68 79 59 57 50 48 57 59 54 61 62 60 67 64 53 48 57 73 71 67 73 78 83 88 89 92 94 98 89 96 95 92 92 95 100 100 75
90 77 76 81 67 70 73 72 74 70 72 52 56 65 64 60 60 65 76 68 57 54 67 68 61 67 78 81 88 92 83 89 97 100 100 100 92 93 93 100 95 72 56 53
78 80 79 73 55 67 66 68 63 63 46 62 71 64 59 59 67 79 71 61 61 68 64 66 73 83 87 90 91 82 86 90 86 77 83 85 79 60 55 59 61 61 62 66
95 86 81 47 50 50 56 52 51 55 54 54 63 57 59 64 76 73 68 62 69 66 67 74 79 85 94 92 81 77 72 77 67 65 62 61 58 61 62 62 63 65 67 72
96 89 71 56 47 52 62 54 50 58 65 59 57 67 60 76 70 66 64 70 69 70 76 78 77 88 89 90 78 62 65 63 65 62 62 62 61 64 66 67 68 69 72 72
99 99 92 61 47 62 60 68 60 64 63 65 64 96 81 77 79 67 66 71 64 72 81 76 73 87 85 82 90 74 71 69 70 61 66 68 71 71 71 72 70 76 75 74
89 89 81 61 55 51 79 68 65 70 66 68 77 82 84 87 71 67 75 67 70 78 82 81 79 74 68 68 84 63 71 71 64 66 73 74 73 72 70 72 81 80 78 81
96 95 94 54 56 67 59 61 62 67 69 77 91 91 85 60 60 64 71 67 66 80 83 82 65 64 61 61 64 71 69 68 72 76 75 74 72 69 72 77 85 92 96 91
76 78 60 55 59 56 59 75 80 81 90 93 97 72 64 62 60 63 73 65 71 82 87 79 74 71 74 72 74 69 68 72 72 76 76 78 76 76 78 79 82 82 82 79
73 63 59 61 56 74 88 95 92 92 93 88 63 64 68 62 59 65 71 68 73 83 86 82 79 77 78 69 66 70 73 73 76 80 84 87 87 80 82 84 83 82 82 82
86 73 67 68 91 90 91 87 74 63 60 61 67 66 66 64 64 71 74 74 77 85 90 85 82 79 68 69 71 75 80 81 80 84 90 93 89 88 91 95 91 88 83 84
89 66 77 92 93 90 90 72 61 62 67 62 55 57 65 64 70 72 72 76 81 88 89 84 80 73 70 72 72 84 83 83 87 91 92 90 86 86 88 82 82 90 93 90
71 79 94 93 90 88 68 65 54 53 46 44 45 60 65 71 70 76 82 84 84 83 84 80 72 76 74 72 78 87 80 86 92 92 90 88 89 90 86 87 82 76 78 96
74 88 96 93 90 72 50 45 44 45 45 47 54 62 72 76 80 82 83 86 89 88 83 77 78 76 68 75 86 86 87 93 96 100 100 100 98 95 92 92 93 89 88 90
62 61 67 59 53 50 49 47 51 52 52 55 56 64 68 74 80 88 98 98 97 98 98 87 84 76 88 90 97 98 98 100 96 96 98 99 98 98 96 95 91 90 89 90
69 60 55 53 50 54 54 53 56 58 59 62 66 69 70 88 97 100 94 90 92 90 96 96 93 97 100 98 100 93 90 96 98 99 99 100 99 99 95 94 90 91 90 97
61 54 56 58 60 66 62 59 63 64 68 74 74 72 77 89 92 97 80 74 83 96 98 97 97 99 100 98 98 100 99 96 90 100 100 100 100 99 99 98 95 95 96 100
54 57 62 66 63 63 65 66 72 74 76 71 76 78 83 86 91 88 78 77 94 97 97 97 97 87 87 89 86 91 98 100 98 100 98 100 100 100 100 100 100 99 99 100
51 56 58 60 64 70 70 69 72 73 76 78 83 85 86 88 90 93 92 95 98 99 97 98 88 84 82 83 91 87 85 96 98 99 95 96 100 100 99 100 100 100 100 100
57 57 59 63 60 64 73 71 75 83 83 86 87 92 92 90 91 95 98 99 98 98 96 84 84 83 86 89 88 89 90 94 95 99 98 99 100 100 100 95 89 100 100 100
65 63 66 69 71 68 71 75 82 89 88 90 94 95 95 96 100 100 99 94 96 96 89 85 82 84 91 88 81 78 95 99 100 100 100 100 99 100 100 98 88 91 100 100
66 71 71 71 77 79 74 82 89 89 90 91 87 89 96 96 99 98 96 98 98 90 84 79 78 79 92 91 92 86 95 100 100 100 100 99 99 100 100 99 94 96 96 96
72 73 76 77 79 82 85 89 82 87 93 97 99 99 98 99 100 100 93 91 95 97 85 79 81 86 80 84 94 92 97 98 99 99 99 99 98 99 100 100 98 94 93 95
74 75 78 76 81 90 94 83 90 95 100 100 100 100 100 100 97 99 96 83 85 83 80 81 85 83 79 88 95 99 99 99 100 100 97 96 97 97 96 97 97 96 92 92
74 77 80 83 93 86 91 93 97 94 92 98 100 99 98 100 100 95 98 96 86 86 86 94 84 87 98 97 92 94 97 99 100 98 98 99 99 97 96 96 96 96 92 88
81 84 85 90 92 89 86 94 96 95 99 99 99 95 98 99 99 89 83 86 81 80 84 83 96 99 99 96 94 95 94 92 97 97 98 98 99 98 97 97 95 95 93 86
76 78 88 92 89 84 79 88 97 94 100 100 99 92 99 100 100 98 94 97 94 93 92 87 95 98 95 95 99 95 88 88 91 94 93 98 99 98 98 97 97 96 95 91

GFSNGP_925_rhum_024.txt.gz
RH
40 37 36 41 44 39 45 47 58 47 35 30 29 32 35 40 41 41 41 45 47 46 39 45 40 39 43 54 58 62 60 56 62 82 97 98 98 91 87 73 68 69 68 59
66 46 43 50 42 40 44 45 44 43 46 30 32 35 43 43 43 45 47 52 52 46 45 44 42 45 53 57 62 63 59 57 70 78 78 78 77 68 57 52 49 50 51 53
84 59 62 80 48 39 42 39 44 51 36 34 37 44 47 46 47 50 56 56 47 44 48 45 48 49 55 62 60 61 60 58 58 58 57 55 51 49 50 52 50 50 52 54
97 91 86 43 34 36 41 39 33 34 34 42 44 43 44 45 56 62 60 52 44 50 47 48 47 45 54 55 60 61 58 60 56 57 53 52 52 54 53 49 51 52 54 56
97 77 50 43 36 41 45 48 38 43 46 45 45 50 48 59 68 74 62 56 53 50 50 51 45 47 52 53 49 57 60 65 68 60 56 54 56 53 51 53 53 53 57 60
90 96 78 40 37 45 46 54 47 51 57 60 74 96 84 79 71 69 69 45 53 53 51 48 44 52 50 44 46 50 56 56 57 58 58 58 52 53 54 52 54 62 71 72
86 95 66 40 44 43 75 71 54 53 64 77 90 90 90 76 67 50 42 47 51 52 51 49 53 53 50 44 41 45 51 57 57 60 57 52 54 53 54 56 65 85 88 89
93 98 93 41 46 72 60 55 53 61 70 86 90 82 67 54 45 38 32 30 39 50 50 49 55 52 49 46 43 50 57 57 58 57 54 54 56 55 58 60 66 85 90 88
56 57 39 38 47 45 53 63 77 90 90 84 73 64 48 40 35 33 37 40 46 46 49 52 57 56 52 49 54 57 58 56 57 56 58 59 61 60 62 64 74 83 81 78
64 48 43 45 46 71 73 88 87 85 85 70 56 40 40 31 31 35 37 40 41 43 45 48 53 58 59 60 61 59 59 57 57 57 64 62 62 61 64 72 84 76 74 74
60 56 56 54 71 83 87 85 71 50 45 47 42 37 30 28 29 32 39 40 44 49 51 52 54 58 59 61 62 62 61 64 63 65 70 70 67 68 73 78 86 82 75 74
85 64 78 88 92 88 82 57 41 40 38 34 29 28 29 31 32 36 40 47 50 50 51 52 52 58 58 59 62 62 64 65 66 78 77 73 69 69 78 86 78 88 94 91
78 70 85 90 88 72 47 42 37 37 33 32 31 33 36 35 34 41 45 47 50 59 60 59 60 69 71 76 76 87 82 81 80 85 79 73 75 76 76 76 87 91 86 92
70 78 96 95 88 48 43 39 36 32 32 34 38 42 42 42 41 42 44 53 71 66 63 69 85 93 87 98 90 96 93 91 90 84 85 86 86 85 84 83 82 70 80 86
62 64 71 54 46 41 34 31 33 31 32 35 35 40 44 49 50 50 59 72 76 64 64 81 91 95 98 95 96 97 97 88 94 95 96 95 94 87 87 83 82 69 68 70
53 45 39 36 29 29 30 30 36 37 37 39 46 56 58 60 62 65 64 69 77 70 74 98 99 99 98 100 97 85 84 91 90 88 90 90 86 85 83 82 76 70 70 74
52 34 32 36 34 36 38 40 42 44 54 59 62 72 80 84 87 78 76 78 89 87 96 100 99 100 98 100 96 86 83 82 90 87 89 88 87 86 84 83 79 73 73 87
33 33 34 36 40 45 46 47 53 60 64 67 82 89 91 89 89 90 91 94 99 100 100 99 99 99 88 92 86 86 85 95 91 90 89 89 87 85 86 86 83 76 76 78
33 35 38 44 50 54 56 56 63 71 82 87 91 92 94 94 94 94 98 100 99 98 93 100 94 87 86 91 88 86 92 89 87 86 88 90 92 90 90 91 88 83 82 79
36 39 46 53 57 68 72 70 76 81 84 87 94 97 92 87 89 94 100 99 98 99 98 97 88 93 85 95 87 81 89 93 87 85 94 86 88 89 91 92 95 88 85 84
50 51 66 69 74 70 71 72 81 89 89 92 97 96 95 98 100 100 98 89 100 98 93 86 80 78 82 85 85 90 93 96 94 92 91 94 90 90 91 92 92 93 88 87
51 59 72 72 79 82 77 81 90 91 92 95 97 100 100 97 98 96 94 95 100 95 96 88 81 78 78 82 91 96 91 90 90 91 94 94 94 94 92 94 93 93 92 91
58 65 69 78 85 80 83 87 87 91 100 99 98 100 100 100 100 95 84 96 100 98 98 95 88 82 80 81 95 98 97 96 93 93 96 96 94 93 93 93 95 95 95 92
62 65 70 75 84 95 93 77 84 87 93 95 93 94 100 98 97 100 100 94 82 88 90 92 87 83 79 81 97 100 97 93 93 94 96 97 99 100 100 100 100 99 100 100
76 81 81 88 84 66 71 71 75 77 87 91 93 95 100 100 99 97 99 99 92 85 92 95 95 91 88 96 100 100 98 93 95 100 99 100 100 100 99 100 100 100 100 100
70 69 66 70 75 79 79 78 78 82 88 91 93 98 98 95 96 99 92 89 92 96 98 90 80 83 95 100 100 100 100 97 95 98 100 100 100 100 100 100 100 100 100 100
75 75 76 75 75 79 84 81 86 86 86 99 98 97 99 97 99 99 99 98 98 98 97 97 99 97 100 99 97 99 100 100 99 100 100 100 100 100 100 100 100 99 100 100

GFSNGP_925_rhum_027.txt.gz
RH
32 26 24 25 28 28 31 30 47 38 33 28 26 28 28 28 32 32 32 34 39 42 41 37 36 34 34 36 40 45 47 45 46 65 69 79 84 79 71 66 49 46 43 42
52 31 25 29 28 28 28 30 32 33 34 28 27 25 28 32 32 35 40 42 47 42 41 40 34 37 36 36 42 46 45 44 48 56 55 56 58 54 50 49 49 43 41 41
76 52 55 75 43 28 29 29 32 44 34 26 29 34 40 45 47 52 64 52 46 46 46 42 37 38 34 36 37 41 45 43 49 52 54 55 53 52 50 47 40 41 42 42
93 88 85 30 24 26 30 29 28 29 29 32 34 42 45 53 60 62 59 55 51 54 45 36 39 40 34 35 34 36 37 43 46 56 58 53 46 45 42 40 42 42 43 46
95 64 42 35 33 37 41 44 31 36 39 37 40 45 45 56 62 63 58 57 57 44 38 40 38 37 36 36 33 32 36 41 48 54 47 45 42 41 42 42 43 43 46 60
88 96 76 35 29 34 35 54 40 44 47 50 51 80 79 81 67 57 58 49 35 34 33 35 36 37 39 38 35 34 34 38 46 46 46 43 41 42 43 42 42 51 71 67
83 93 58 33 36 36 65 69 51 50 72 82 89 93 82 71 65 55 39 32 26 26 30 33 36 36 37 37 35 32 35 43 49 47 45 42 42 43 42 42 50 81 78 84
86 96 85 34 38 66 59 51 67 65 79 86 80 76 68 55 37 32 28 26 27 28 30 30 32 32 33 38 35 38 46 49 50 48 46 43 45 44 43 46 56 79 87 85
60 58 37 36 46 55 55 64 75 86 80 80 69 52 37 35 29 24 22 21 24 26 27 29 31 32 32 42 53 63 56 53 54 53 46 43 44 44 46 52 62 82 81 79
60 43 38 44 50 61 64 72 77 75 66 50 41 39 33 24 21 21 20 23 24 27 29 32 31 30 32 39 57 65 53 58 62 54 49 53 50 47 53 62 76 81 70 73
58 46 51 73 80 80 77 78 69 45 38 37 34 29 25 22 21 22 23 23 25 30 31 31 33 34 35 37 57 56 67 85 68 52 53 69 62 57 61 69 81 76 73 76
80 74 83 90 86 79 77 50 38 36 35 30 27 25 24 26 27 27 28 30 30 30 34 38 39 42 49 67 62 72 94 88 59 65 70 74 70 63 68 84 84 80 77 84
61 78 86 84 81 65 51 40 36 34 28 25 25 26 27 27 28 31 32 34 34 38 45 46 53 58 66 95 95 99 98 77 69 79 81 83 77 77 82 82 95 96 96 87
69 76 94 86 79 54 42 36 30 26 24 24 27 28 29 31 37 39 39 41 44 45 57 58 64 72 91 93 99 95 98 90 85 76 91 93 89 91 90 85 81 79 94 93
72 72 60 57 44 37 28 25 25 25 27 29 30 34 42 45 46 48 52 56 60 61 64 64 73 87 91 95 98 93 96 86 93 94 97 96 92 95 90 90 87 82 69 76
54 41 36 32 28 26 25 26 29 30 31 35 43 49 54 56 63 67 64 65 79 82 82 94 98 97 97 97 93 86 73 80 80 85 94 96 95 93 88 84 84 80 71 78
52 39 34 33 30 29 30 32 35 38 44 50 51 67 80 84 86 68 73 82 96 100 100 99 99 95 100 95 86 72 69 83 96 92 90 96 94 90 93 86 88 82 77 96
32 31 28 28 30 33 37 42 47 49 53 59 78 91 94 94 90 89 90 95 99 99 99 89 99 98 97 82 79 72 78 85 92 96 97 96 94 87 90 92 92 90 81 79
29 28 29 30 35 42 48 49 51 62 73 83 92 94 94 97 98 94 96 98 98 99 99 98 99 88 84 83 78 79 91 91 94 93 92 94 92 95 92 93 91 92 90 83
30 29 31 38 47 63 64 71 71 74 74 75 85 97 95 95 97 100 100 99 99 96 100 98 94 89 88 79 85 76 90 95 93 90 93 90 88 92 93 94 93 89 93 93
46 41 46 66 76 72 68 66 75 87 81 91 98 98 97 98 99 100 91 77 96 94 100 92 86 73 73 81 87 89 94 93 95 92 92 92 91 92 94 94 94 93 92 95
40 44 55 64 79 83 82 82 87 86 91 96 96 95 96 94 90 92 86 90 89 94 96 90 85 83 74 77 76 95 92 92 91 91 94 93 91 91 94 94 93 94 94 95
44 48 54 63 74 76 76 79 79 84 94 91 90 92 95 93 100 97 87 92 92 93 98 95 92 90 76 78 80 83 88 92 94 93 92 90 93 96 94 94 95 94 97 96
51 52 56 64 71 84 92 70 64 70 76 79 84 87 88 97 99 92 96 94 96 83 82 83 88 84 86 80 77 84 88 90 94 96 96 96 93 90 97 96 95 98 98 97
58 67 71 77 81 62 52 56 63 66 71 79 84 86 88 99 100 96 92 95 99 100 98 88 88 90 93 86 83 86 89 92 95 97 92 96 98 97 93 96 99 98 98 98
56 58 57 56 59 62 63 70 77 81 80 81 82 84 88 90 98 100 98 95 99 99 98 91 95 95 90 89 86 87 93 94 97 98 95 96 96 96 96 98 99 99 99 97
57 61 64 62 57 62 73 82 92 93 92 95 96 92 94 96 96 99 100 96 100 99 97 97 98 97 97 90 87 94 94 98 97 99 98 98 98 98 100 100 100 100 100 100

GFSNGP_925_rhum_033.txt.gz
RH
50 37 32 30 33 31 32 34 49 48 41 42 47 56 56 54 51 63 66 62 58 56 52 50 50 48 46 38 37 36 34 34 36 43 52 54 55 56 58 57 54 54 45 43
52 52 50 43 43 44 35 32 37 42 44 51 52 50 58 60 62 65 65 60 58 54 53 53 52 49 42 36 36 37 36 35 34 34 51 56 55 55 55 55 51 44 43 46
85 77 76 74 50 37 35 37 38 48 49 54 63 67 71 73 71 72 69 64 62 60 55 52 49 48 48 37 39 43 48 40 41 44 50 56 55 59 57 51 44 43 44 53
89 84 56 48 35 41 46 46 48 59 66 66 68 73 77 77 77 76 72 70 65 58 53 46 46 46 31 31 32 37 38 42 48 52 60 67 81 56 52 45 42 43 53 60
95 94 63 47 39 46 52 65 66 75 75 74 70 65 89 71 73 75 74 65 58 52 51 39 27 27 28 30 30 33 44 49 58 66 80 96 82 80 55 43 43 52 58 66
92 91 85 59 43 37 37 76 71 77 83 84 74 88 84 78 72 68 60 56 54 24 22 23 26 26 28 28 29 35 44 60 65 80 98 100 91 67 43 43 55 60 64 67
96 90 80 59 39 37 69 74 82 82 84 81 83 85 76 72 69 57 48 24 21 22 23 25 25 27 30 31 36 50 53 60 71 81 82 94 62 47 47 52 64 67 68 65
84 85 95 50 56 62 73 81 78 76 78 74 72 70 71 65 45 31 26 25 25 26 28 28 28 29 34 36 47 53 54 66 84 86 83 66 57 54 51 58 68 70 64 64
78 80 60 54 64 78 77 82 77 71 73 71 70 49 47 42 32 29 27 27 29 30 31 32 32 35 37 46 56 64 66 80 90 94 86 68 60 59 58 63 66 70 75 79
72 55 64 83 79 75 77 83 77 69 65 67 47 47 37 35 32 30 29 34 34 36 39 41 43 45 45 48 62 72 79 88 88 88 80 75 68 64 64 68 73 79 81 79
66 72 86 84 83 84 83 79 68 60 56 42 34 34 35 36 33 33 39 40 41 43 48 51 52 54 57 60 72 76 75 81 88 95 94 76 69 74 72 75 77 80 86 86
84 70 77 91 89 84 84 68 61 44 39 30 31 35 33 36 37 42 45 45 47 53 57 61 65 70 74 86 88 92 84 77 84 94 85 82 79 75 75 77 71 78 81 89
84 86 89 92 89 76 70 57 40 33 29 36 32 32 37 44 45 48 50 50 58 62 67 69 75 79 92 97 98 99 89 90 88 87 82 76 82 80 80 70 79 74 79 83
79 84 92 85 86 68 59 45 28 27 30 31 36 42 48 51 55 56 58 61 67 67 71 76 84 93 90 97 92 93 93 85 81 81 73 72 81 79 75 96 89 84 79 88
82 74 77 75 64 61 52 30 36 38 38 41 47 52 56 64 64 65 67 68 74 74 82 91 96 98 100 92 92 89 83 78 74 73 77 80 79 75 94 90 86 88 86 92
74 62 60 61 42 36 34 38 41 48 50 51 55 57 63 62 67 74 76 79 84 93 96 98 95 99 99 96 88 83 81 90 81 69 74 82 82 93 95 86 89 85 87 95
66 54 49 44 43 40 39 51 53 56 57 59 60 64 63 73 84 87 86 93 99 99 98 99 93 98 88 88 86 79 91 86 75 76 74 77 79 89 96 85 74 83 90 98
42 36 36 39 43 52 56 60 57 57 62 64 62 69 78 89 95 95 94 95 94 85 87 87 92 96 89 89 86 78 75 74 74 76 75 75 82 88 77 81 92 98 97 83
34 38 39 41 49 52 52 56 61 62 59 62 75 79 90 94 86 84 86 91 95 95 86 98 97 99 88 84 78 76 78 83 74 77 72 79 79 73 85 92 97 93 88 89
43 43 40 41 41 45 54 57 61 68 67 75 78 86 95 83 79 82 78 90 94 98 90 91 94 97 86 89 84 75 72 72 73 73 71 88 86 88 87 83 89 96 94 94
50 50 49 48 49 53 58 58 66 75 70 78 90 88 88 82 78 80 91 93 86 93 96 93 92 92 80 80 82 82 77 78 83 86 73 73 72 80 88 90 84 83 85 95
56 53 51 51 55 56 55 62 70 75 78 77 77 88 96 90 74 82 84 94 87 95 95 99 94 91 93 92 84 85 86 73 77 90 87 86 91 86 87 94 91 94 96 84
52 55 57 56 57 62 65 64 66 68 70 71 96 99 99 98 89 92 93 90 99 89 96 98 96 98 97 99 100 98 89 79 76 81 86 86 80 80 95 87 88 92 95 95
58 57 59 58 60 63 73 62 64 68 70 77 79 78 79 87 91 92 97 93 90 85 89 100 96 98 98 97 98 97 89 90 91 88 96 94 81 91 89 82 93 91 97 98
55 56 58 60 66 69 67 67 69 70 80 84 85 83 74 76 95 97 89 94 89 87 96 99 99 99 98 98 98 97 96 92 93 93 88 89 80 79 82 84 85 93 95 95
61 63 62 62 64 62 64 68 78 85 87 94 92 83 73 75 75 75 81 86 93 99 100 100 100 99 98 98 98 99 98 96 96 98 98 95 88 88 87 83 90 93 96 95
61 62 64 66 65 64 69 76 72 78 88 93 92 80 79 77 90 96 88 91 100 100 100 100 100 100 100 99 99 99 98 98 97 96 97 98 98 95 88 91 95 95 94 91

GFSNGP_925_rhum_036.txt.gz
RH
48 45 36 33 34 35 34 38 54 48 59 67 66 68 66 65 68 66 65 65 63 62 56 53 52 49 46 47 40 40 39 41 38 41 41 53 57 58 61 64 59 58 50 44
44 63 60 41 42 47 44 34 41 60 73 59 61 66 71 71 70 73 70 66 65 61 58 51 48 52 54 37 34 32 39 41 48 46 47 49 58 62 70 65 83 51 44 44
54 83 65 68 49 38 39 46 44 53 65 67 73 75 79 80 76 76 74 71 69 64 58 56 56 40 30 30 29 28 32 45 47 49 52 61 64 69 92 100 80 44 48 55
74 72 38 42 44 41 67 69 70 75 77 74 73 80 83 77 77 77 76 70 68 62 57 33 30 28 28 27 28 33 48 61 63 63 62 69 81 98 90 87 77 56 58 67
73 88 50 44 44 48 46 68 73 81 80 78 71 82 87 73 72 71 69 65 61 41 26 28 27 27 29 31 35 45 54 55 50 63 67 76 96 98 80 88 69 62 70 69
99 64 59 47 44 38 42 74 78 81 86 81 74 83 81 74 70 64 58 55 31 26 28 28 29 29 31 34 38 50 52 50 54 72 82 92 94 90 80 61 59 67 68 63
99 92 78 55 50 41 71 64 83 82 83 80 79 78 73 70 65 55 34 28 29 30 31 32 34 36 38 38 45 53 54 56 65 81 90 98 98 69 59 64 66 67 64 67
94 93 82 54 53 58 63 85 85 86 81 81 78 72 65 66 44 32 30 32 33 35 37 38 41 46 47 46 49 56 61 65 74 80 78 89 74 76 85 70 68 69 74 79
75 77 56 60 53 74 80 85 80 79 78 76 72 66 47 40 34 32 34 37 39 41 43 46 51 54 56 58 58 70 76 80 84 89 87 83 67 62 65 69 74 79 83 82
73 57 69 84 81 77 77 79 77 74 74 72 60 45 40 37 36 38 41 43 44 46 51 57 60 65 68 70 72 79 88 87 76 78 90 86 89 83 70 75 76 76 82 85
73 92 88 83 82 84 84 79 72 66 63 55 41 40 37 39 41 46 47 48 48 53 61 64 68 66 74 84 92 99 100 97 80 80 100 96 84 77 79 78 76 78 83 86
84 67 74 83 89 85 85 77 65 61 50 37 35 40 38 45 48 52 53 50 56 61 67 70 68 76 81 91 99 97 100 98 89 91 96 91 84 87 79 74 78 78 84 88
73 88 89 92 89 83 74 65 59 40 38 42 38 42 47 51 53 56 49 55 64 68 72 72 76 89 98 100 99 93 96 99 94 94 85 71 74 75 82 69 80 72 80 82
85 85 94 89 91 76 63 47 34 35 36 39 46 51 52 57 58 56 59 66 70 77 81 81 91 91 96 98 100 98 94 98 95 88 75 77 76 81 85 93 93 78 79 86
83 74 77 79 74 68 52 35 45 47 48 53 52 54 58 66 66 66 72 75 83 90 95 99 97 90 95 100 98 92 94 92 95 92 76 81 78 78 86 92 82 80 72 87
81 72 72 68 57 43 43 46 51 54 55 56 57 57 64 68 71 80 86 93 95 95 97 94 89 86 86 87 90 82 83 85 88 81 79 70 80 85 93 92 82 68 81 92
73 65 51 51 49 49 54 56 57 57 59 60 62 65 67 77 87 92 88 83 84 85 87 87 83 85 96 86 87 79 77 78 79 74 73 81 80 78 88 85 74 87 89 94
45 44 45 48 53 59 63 61 58 58 63 64 63 71 78 90 93 83 78 80 81 86 95 85 87 100 98 86 85 83 77 78 78 78 79 78 78 80 76 79 90 96 91 92
49 50 50 51 48 48 49 50 54 56 57 62 73 75 79 88 87 77 78 78 79 81 84 92 93 94 99 89 83 82 79 74 72 72 73 73 79 80 85 88 87 90 95 97
49 44 41 42 42 44 48 51 55 61 62 72 76 85 90 88 87 74 72 79 79 83 82 94 93 89 91 89 82 83 95 89 82 76 77 79 75 73 73 80 90 92 92 91
54 52 50 49 48 49 51 53 62 69 64 74 85 89 92 93 83 69 83 80 79 78 90 96 96 99 100 89 87 86 81 85 88 91 86 89 86 80 85 89 83 90 93 98
51 52 52 54 56 57 55 58 64 67 72 74 74 87 99 90 84 91 90 89 83 89 94 99 91 85 99 100 97 98 99 96 93 97 80 82 88 85 86 83 91 88 86 97
53 55 58 59 60 62 61 62 63 66 71 73 81 94 96 94 93 100 94 92 97 96 100 97 92 88 97 99 99 98 95 95 97 97 92 84 86 88 89 83 91 85 85 93
62 60 60 57 60 65 75 60 63 67 71 73 78 89 92 85 78 81 84 81 83 82 90 93 99 100 100 100 99 99 100 100 99 96 94 93 92 88 92 85 88 81 88 91
56 58 60 63 69 71 66 63 70 72 76 82 83 81 82 74 73 70 76 88 89 95 100 100 100 99 99 100 100 99 98 97 97 98 97 97 96 95 92 85 83 80 84 96
65 68 67 67 68 66 67 71 78 75 78 82 82 84 82 71 72 79 97 90 96 96 94 98 98 95 100 100 100 100 100 99 99 98 98 97 97 97 97 95 94 86 92 95
66 68 72 76 72 71 73 77 86 82 77 84 90 81 79 78 92 98 100 96 86 88 95 96 93 92 95 95 99 100 100 100 100 100 98 97 97 97 97 97 95 95 96 96

GFSNGP_925_rhum_042.txt.gz
RH
58 57 42 33 35 42 42 44 47 42 59 49 71 82 86 84 80 73 68 64 64 64 60 56 52 38 32 29 26 27 29 32 43 44 41 40 42 44 51 69 83 87 92 97
55 66 63 48 42 43 42 41 50 49 56 64 73 79 86 84 78 71 66 64 64 63 62 56 45 36 29 28 28 29 32 44 47 45 43 46 54 63 70 85 87 80 94 93
64 73 50 50 48 49 50 49 52 64 55 79 80 82 87 85 77 71 69 66 65 66 60 49 34 29 31 32 34 34 36 40 46 50 52 55 64 77 94 97 92 86 86 82
62 66 39 30 39 49 46 49 56 59 65 74 76 80 80 78 76 73 70 65 66 60 44 35 32 34 36 38 39 41 42 47 52 55 59 62 66 74 90 88 87 92 88 78
68 68 41 28 58 60 52 48 70 66 78 79 89 82 81 82 76 66 66 65 59 45 33 33 38 41 45 46 48 50 54 55 59 65 65 68 75 82 96 95 99 98 80 74
95 56 46 34 46 50 41 68 65 74 84 89 87 94 80 86 80 75 65 50 33 32 36 39 44 49 51 55 59 59 57 63 66 71 73 77 81 94 91 82 70 77 78 70
99 74 64 47 47 42 63 55 80 77 82 92 88 79 70 84 73 57 36 32 34 38 41 46 52 55 59 58 62 73 76 72 74 80 83 89 87 92 70 77 89 98 75 71
96 89 68 49 49 56 57 64 74 82 84 84 77 79 80 72 46 36 37 38 41 43 45 51 55 64 64 60 68 72 74 87 96 96 94 87 84 88 95 98 92 75 79 79
74 74 52 53 56 63 68 70 80 84 83 81 82 81 73 48 43 39 40 43 46 46 50 49 57 68 68 66 77 83 93 99 99 98 98 92 86 82 91 94 94 82 75 81
66 48 63 60 64 76 78 73 81 80 81 80 78 69 52 44 42 46 47 48 46 52 57 55 59 71 74 78 87 98 97 92 81 98 94 100 99 97 95 91 83 76 82 87
76 70 78 78 84 75 79 80 79 78 77 74 62 53 46 45 48 50 51 49 52 59 63 64 72 78 83 88 96 96 97 88 95 99 98 97 94 87 90 96 92 87 89 91
75 57 58 55 70 84 87 84 82 74 66 52 51 47 43 48 49 53 57 54 59 67 74 80 87 92 91 85 86 94 96 100 100 98 100 89 87 82 71 76 84 91 91 90
61 72 78 91 88 83 83 81 70 52 50 52 43 41 46 52 54 60 59 66 77 85 88 93 99 96 85 81 86 89 97 100 100 99 96 87 73 69 75 75 74 88 84 76
84 85 85 88 90 79 70 56 49 48 46 45 48 48 50 55 63 65 69 80 82 79 84 84 82 86 88 79 81 86 92 99 100 98 99 99 91 74 75 83 89 86 74 77
87 83 82 88 64 52 44 46 53 58 60 57 53 54 58 65 69 69 77 79 80 83 84 83 82 82 81 81 90 84 82 82 90 80 92 95 87 89 75 86 90 94 88 78
87 79 67 56 51 52 58 64 73 66 58 59 58 59 64 68 69 74 77 79 81 78 75 77 78 78 80 86 91 83 85 80 79 76 77 81 86 80 81 83 85 88 83 79
70 76 87 92 93 91 87 63 57 60 61 61 59 64 67 72 78 77 78 78 73 71 70 68 71 76 80 80 85 86 85 86 88 89 77 79 78 83 80 79 85 87 85 81
79 85 90 90 85 74 66 60 54 53 57 57 63 69 76 82 80 71 75 79 84 80 70 70 75 79 78 78 83 93 94 96 94 96 88 80 81 84 77 74 81 86 85 87
86 88 88 72 54 50 47 47 49 52 57 61 68 69 73 76 80 80 84 91 89 86 76 80 86 88 88 89 98 100 99 98 94 90 91 93 93 85 81 80 80 80 78 82
54 50 47 48 48 48 49 50 53 56 56 63 68 74 78 72 75 84 91 94 82 82 76 87 96 97 98 99 100 100 100 100 98 97 88 84 86 92 92 94 94 92 83 82
57 51 53 51 52 52 54 56 59 60 58 63 74 77 78 75 78 84 96 96 83 76 75 89 95 95 94 96 98 98 95 98 99 98 99 98 97 96 97 96 96 88 86 90
59 59 60 61 62 60 55 59 63 65 67 67 67 72 77 79 76 86 87 96 80 69 82 95 99 98 95 95 94 94 98 98 97 98 98 98 98 97 97 97 96 96 90 83
63 63 64 65 68 71 69 67 71 74 75 73 71 69 73 76 79 96 97 86 75 80 94 98 100 92 86 84 86 96 98 99 99 99 98 98 97 97 97 97 97 97 96 90
69 73 76 79 78 81 90 88 85 76 75 73 72 76 80 84 85 84 84 86 82 98 100 100 88 83 91 90 92 99 100 100 100 94 94 98 99 98 98 97 97 96 97 96
86 90 90 93 98 99 98 97 98 92 94 94 92 79 84 91 100 98 99 97 98 100 100 86 79 79 81 82 87 97 100 100 100 100 100 100 100 100 98 98 98 97 97 97
97 100 100 98 99 99 99 100 97 96 95 94 95 93 93 96 95 95 100 96 99 98 91 84 81 84 83 88 96 99 98 96 96 95 96 98 99 100 100 97 97 97 97 97
92 88 89 90 94 98 99 96 96 96 95 92 94 93 95 95 96 97 99 98 96 96 93 83 89 88 88 88 91 94 95 96 98 97 96 96 96 96 96 97 98 97 97 97

GFSNGP_925_rhum_045.txt.gz
RH
57 56 45 36 37 50 43 42 47 38 42 34 43 58 65 65 65 64 59 55 52 51 53 52 50 42 32 27 26 28 29 32 44 47 46 44 47 50 55 70 97 98 100 100
60 61 56 48 41 40 43 39 41 42 40 34 54 61 71 71 66 63 58 54 53 55 54 50 45 38 28 30 31 34 35 37 43 50 52 49 53 56 78 92 97 80 81 79
60 60 44 55 45 43 43 43 37 43 34 65 71 69 71 72 66 62 57 57 60 59 51 50 38 31 35 34 37 40 42 50 55 57 56 59 71 81 84 91 84 84 88 89
60 61 40 31 41 40 43 44 43 50 55 60 60 66 67 63 63 62 58 58 61 55 48 38 33 35 40 44 44 46 54 55 57 63 63 77 85 83 89 97 100 93 98 88
66 51 36 25 42 53 52 38 46 46 62 72 75 68 70 67 61 56 58 60 58 45 38 34 38 43 46 48 53 56 58 67 70 74 82 87 84 88 90 99 96 99 98 83
77 49 44 30 38 50 42 56 49 57 72 78 69 79 61 69 64 61 64 61 43 36 36 40 44 47 51 58 58 62 74 80 83 88 94 92 92 88 91 81 79 87 85 83
81 69 56 40 43 45 50 44 67 62 69 78 69 67 68 75 71 66 48 36 38 39 42 42 46 50 61 62 61 74 84 86 91 98 100 99 94 87 83 94 92 97 97 75
91 81 68 43 48 56 52 54 62 71 71 76 74 75 80 69 50 38 37 42 42 44 45 46 50 58 64 66 70 84 92 95 89 84 86 99 95 82 84 100 99 89 81 82
65 64 51 47 55 60 60 59 65 72 72 73 74 73 64 48 40 40 40 43 45 45 50 51 52 66 74 74 82 92 92 94 86 83 90 98 95 96 96 97 100 99 91 85
64 48 55 56 56 66 70 70 65 73 73 72 72 68 50 39 42 44 46 48 50 53 56 60 62 69 80 86 93 90 92 92 94 91 93 100 100 99 95 95 91 87 85 86
68 61 63 62 72 66 74 75 77 74 72 71 64 47 47 48 46 46 52 53 52 60 66 70 78 85 90 92 89 80 86 93 97 100 100 100 97 88 86 88 88 93 87 93
74 51 51 53 76 79 80 79 75 68 59 55 57 57 51 50 49 54 57 56 62 71 76 80 88 92 92 87 77 80 92 91 98 100 100 100 92 84 76 72 75 76 84 95
59 75 70 85 85 78 78 76 59 55 55 51 49 48 50 51 57 60 59 62 72 78 82 84 86 80 78 89 92 88 90 97 99 100 100 100 98 88 80 76 70 75 79 85
84 80 78 86 88 69 57 51 52 52 57 71 77 54 50 56 63 63 64 67 72 79 82 82 84 81 81 82 87 85 86 90 94 100 99 97 97 100 94 85 81 83 83 83
87 85 80 60 49 46 49 60 74 80 84 61 54 53 54 61 62 65 64 71 76 79 76 75 77 74 74 80 79 80 95 98 97 89 95 90 98 100 95 90 85 85 88 90
63 54 52 61 70 78 83 86 91 86 69 59 60 58 56 62 64 66 69 74 84 79 68 71 75 73 77 77 88 94 86 88 89 98 98 92 92 90 86 88 85 83 82 87
80 87 85 93 95 92 84 77 72 61 60 61 58 57 62 66 71 72 72 68 78 79 77 80 75 73 80 81 81 95 92 99 91 92 99 98 97 92 89 88 90 88 85 93
80 85 90 90 84 79 65 63 56 54 53 52 59 64 70 78 81 72 68 71 78 84 81 72 76 83 91 92 95 100 100 100 100 100 100 100 100 99 93 92 90 88 87 92
83 84 82 70 64 55 49 49 50 52 55 58 64 68 71 76 78 76 75 84 88 92 78 81 78 89 95 93 98 99 99 100 100 100 100 100 100 100 100 100 97 96 94 94
58 56 50 52 51 53 56 57 58 59 60 66 68 72 73 68 67 73 81 92 86 81 81 75 76 90 87 87 88 92 100 100 100 99 100 100 99 99 99 99 98 99 100 100
59 55 60 59 60 59 60 62 63 65 68 72 79 79 79 78 76 77 96 100 72 74 85 72 76 86 100 95 98 94 98 99 99 98 99 98 99 99 99 99 98 99 99 100
63 65 68 68 69 71 76 82 84 81 77 77 77 77 83 87 86 84 81 93 75 86 85 75 84 94 97 93 94 94 94 98 100 99 98 98 98 97 98 99 99 99 99 99
72 76 83 87 89 91 86 85 77 82 86 91 95 98 99 98 96 97 94 87 89 90 86 91 94 98 96 86 92 100 100 100 100 100 100 99 96 96 97 98 99 99 99 99
92 95 95 94 87 86 82 81 90 93 98 99 99 99 100 96 94 95 100 98 99 98 98 97 98 96 87 78 81 92 100 100 100 100 100 100 98 100 98 96 100 100 99 100
96 93 94 91 86 83 82 83 81 81 83 84 85 86 88 93 95 95 100 100 100 98 98 97 95 94 85 80 88 94 99 100 98 100 100 100 100 100 100 98 100 99 98 98
82 82 85 88 84 82 84 84 86 87 93 93 92 93 97 94 99 98 99 100 99 99 97 96 96 94 85 85 88 92 97 98 98 99 100 100 100 100 100 99 99 96 98 100
87 88 82 78 80 84 86 86 89 87 92 100 98 94 96 100 99 98 99 100 98 96 96 96 95 96 96 96 95 95 97 98 97 97 98 100 100 100 100 100 100 99 96 96

GFSNGP_925_rhum_048.txt.gz
RH
35 34 32 28 28 31 28 23 32 17 16 11 19 28 33 40 44 46 44 44 41 39 40 40 38 38 33 29 31 34 30 28 30 41 44 45 48 54 57 63 65 68 75 86
45 43 39 36 28 26 29 26 26 22 23 16 20 23 37 45 46 48 45 42 38 36 38 37 35 29 29 31 33 35 31 32 35 42 46 50 53 58 60 60 62 70 68 70
42 42 39 62 36 27 24 26 26 28 22 27 34 35 40 45 46 46 44 41 38 38 38 35 31 28 29 33 36 36 35 33 36 40 46 51 54 58 60 62 67 72 77 76
59 56 74 19 26 26 27 24 23 25 28 27 30 35 37 39 44 46 44 41 39 44 38 32 29 31 37 35 35 37 37 38 41 45 49 52 59 61 59 64 76 82 90 90
88 39 25 15 21 24 28 20 22 24 24 37 46 47 49 43 42 44 42 40 43 40 32 29 31 36 36 35 35 35 38 45 49 56 57 60 60 62 62 67 68 63 89 88
77 89 85 22 31 38 34 33 31 30 34 46 50 51 24 48 48 46 43 43 39 32 31 33 37 41 38 32 36 39 45 54 57 60 64 66 68 67 66 65 67 69 69 75
72 95 44 25 33 37 40 30 38 36 38 46 46 39 50 47 50 45 44 38 31 32 33 34 41 42 39 38 39 44 55 62 64 65 65 68 79 79 67 64 84 93 98 97
84 99 80 29 41 48 38 38 40 45 42 49 53 60 60 55 50 44 32 34 36 35 34 39 42 43 36 36 42 54 62 66 68 66 64 65 73 69 67 71 91 99 96 95
47 41 37 33 36 41 43 43 42 45 47 52 61 59 55 51 42 35 35 37 39 37 40 42 44 43 44 46 57 64 67 67 67 66 66 64 71 73 80 77 80 87 92 83
50 31 34 35 32 35 36 44 45 51 51 53 54 55 48 36 36 39 41 42 45 40 38 38 45 51 57 61 67 69 65 69 86 94 80 72 74 72 73 74 76 79 82 88
47 36 35 37 45 51 52 58 59 59 58 57 56 48 38 42 46 49 50 59 44 43 45 44 51 58 61 67 71 68 64 69 77 81 89 85 77 72 68 66 67 69 69 90
52 46 45 51 65 67 63 63 60 56 54 50 46 53 50 52 51 62 65 48 46 46 50 51 55 59 59 61 64 67 68 66 75 87 84 85 83 80 76 76 74 68 75 78
50 60 62 68 65 62 64 58 52 52 52 51 51 53 54 66 64 53 51 53 48 49 57 58 59 60 60 65 75 79 77 76 80 86 86 84 83 81 84 72 81 82 79 74
64 64 71 68 68 55 52 51 56 67 80 83 80 73 63 54 56 51 47 47 55 58 58 58 59 62 64 66 70 78 86 86 94 88 86 90 91 90 80 83 83 73 74 87
67 61 59 51 48 53 65 77 91 89 83 71 58 49 49 48 44 43 48 55 61 61 61 61 61 64 69 74 78 76 76 79 89 94 94 91 92 90 91 87 84 78 70 73
55 53 55 63 69 73 78 84 84 76 64 48 51 55 50 49 49 48 51 61 68 58 59 65 70 78 77 76 74 72 74 83 93 96 92 91 90 89 94 90 84 82 82 74
76 83 82 85 82 74 68 57 55 57 52 56 57 60 61 65 69 63 60 59 74 69 67 78 78 84 83 81 76 73 76 76 85 91 96 93 98 96 94 95 92 85 85 86
65 70 74 69 59 58 52 54 49 49 48 57 59 60 64 70 75 76 74 70 72 73 71 72 76 87 84 82 82 88 95 99 100 99 98 99 96 97 98 95 91 92 90 89
70 69 67 58 48 45 44 48 56 62 60 63 67 74 75 74 79 80 79 89 91 92 75 77 78 80 84 82 90 85 94 94 95 98 98 97 97 96 99 98 96 96 94 95
51 45 48 53 63 62 67 74 73 72 77 82 80 86 90 87 85 88 92 96 87 79 72 82 91 93 91 88 89 84 87 93 93 93 94 91 93 96 97 97 97 98 98 98
50 58 70 69 74 84 88 87 79 80 78 73 87 86 90 92 92 93 86 69 67 78 87 93 95 94 84 85 86 86 91 93 92 91 92 94 95 94 94 95 96 97 97 98
60 82 88 86 88 84 84 75 79 91 90 92 95 96 93 76 77 76 81 83 78 89 96 100 99 99 96 97 94 99 97 90 93 96 93 93 97 98 95 92 91 93 95 95
74 79 88 90 80 71 74 76 82 82 90 86 84 81 78 76 72 72 80 77 84 91 98 99 98 98 97 97 98 100 100 97 95 94 96 98 100 98 97 96 98 96 91 90
77 74 74 76 76 64 56 54 57 59 69 70 68 76 80 77 80 72 74 88 93 99 100 98 99 98 97 97 99 100 100 100 100 100 100 100 100 100 99 100 100 100 98 98
73 69 71 66 56 52 51 51 48 50 55 60 67 68 73 73 78 84 96 93 97 98 98 98 97 96 98 98 100 100 100 100 100 100 100 100 100 100 100 100 100 100 100 100
62 61 61 60 57 53 55 56 60 62 65 68 69 75 82 83 84 88 91 94 96 99 100 100 100 99 99 99 99 100 100 100 100 100 100 100 100 100 100 100 100 100 100 100
63 61 55 54 56 62 70 74 77 78 80 86 87 88 89 91 94 93 96 94 97 99 99 100 100 99 100 100 100 100 100 100 100 100 100 100 100 100 100 100 100 100 100 100